Tracking 22881 objects as of 19-Apr-2021
HD Live streaming from Space Station
objects crossing your sky now

SPOC

Track SPOC now!
10-day predictions
SPOC is classified as:


NORAD ID: 46921
Int'l Code: 1998-067RR
Perigee: 413.0 km
Apogee: 415.8 km
Inclination: 51.6 °
Period: 92.7 minutes
Semi major axis: 6785 km
RCS: Unknown
Launch date: November 20, 1998
Source: United States (US)
Launch site: TYURATAM MISSILE AND SPACE COMPLEX (TTMTR)

Uplink (MHz):
Downlink (MHz): 437.350/2401.300
Beacon (MHz):
Mode: 9k6 GMSK/2Mbps QPSK
Call sign: MOCI-1
Status: Inactive

aabbcc
Your satellite tracking list
Your tracking list is empty




NASA's NSSDC Master Catalog

Two Line Element Set (TLE):
1 46921U 98067RR  21108.71153645  .00014178  00000-0  22810-3 0  9993
2 46921  51.6422 273.7101 0002040 210.3363 149.7509 15.53250857 25574
Source of the keplerian elements: AFSPC